Oni Press, 2015 Series
 

Series Timeline

See series details by issue (displays one row per issue with no gaps, by the regular issue sort order)

This page attempts to show how the issues in this series were published over time by laying them out in a timeline with alternately gray or white rows roughly corresponding to months. The correspondence is less accurate for bi-monthly, quarterly or annual books. Weekly or other more-frequent-than-monthly issues are simply grouped into the same color row by month.

The timeline feature depends on the key date field to order issues into a timeline. Please note that if the key dates are not filled out to correspond to the publication months of the issues, then the timeline will not be accurate.

Key Date Pub. Date On-sale date Number Indicia Publisher Brand Pages Price Barcode
2015-04-00 April 2015 2015-03-27 1 [2015 ECCC Exclusive Zac Gorman Variant] Oni Press, Inc. Oni Press [eye] 32 [none] 64985600054500161
2015-04-00 April 2015 2015-07-09 1 [2015 SDCC Exclusive Gabo Variant] Oni Press, Inc. Oni Press [eye] 32 [none] 64985600054500181
2015-04-00 April 2015 2015-03-27 1 [Convention Exclusive Blank Sketch Cover Variant] Oni Press, Inc. Oni Press [eye] 32 [none] 64985600054500191
2015-04-01 April 2015 2015-04-01 1 [Ryan Hill Cover] Oni Press, Inc. Oni Press [eye] 32 3.99 USD 64985600054500111
2015-04-01 April 2015 2015-04-01 1 [BAM! Books -A-Million Exclusive CJ Cannon Variant] Oni Press, Inc. Oni Press [eye] 32 [none] 64985600054500121
2015-04-01 April 2015 2015-04-01 1 [Incentive Cover C - Justin Roiland Variant] Oni Press, Inc. Oni Press [eye] 32 [50.00 USD] 64985600054500131
2015-04-01 April 2015 2015-04-01 1 [Incentive Cover B - Johnny Ryan Variant] Oni Press, Inc. Oni Press [eye] 32 [30.00 USD] 64985600054500141
2015-04-01 April 2015 2015-04-01 1 [Incentive Cover A - Julieta Colás Variant] Oni Press, Inc. Oni Press [eye] 32 [10.00 USD] 64985600054500151
2015-04-01 April 2015 2015-04-01 1 [Bridge City Exclusive Ryan Hill Variant] Oni Press, Inc. Oni Press [eye] 32 [none] 64985600054500171
2015-04-01 April 2015 2015-04-01 1 [4CG Four Color Grails Exclusive Andrea Tamme Variant] Oni Press, Inc. Oni Press [eye] 32 [none] 64985600054500101
2015-05-00 May 2015 2015-05-13 2 [Erica Hayes Retailer Incentive Variant] Oni Press, Inc. Oni Press [eye] 32 [none] 64985600054500221
2015-05-13 May 2015 2015-05-13 1 [Second Printing Variant - Fred Chao] Oni Press, Inc. Oni Press [eye] 32 3.99 USD 64985600054500112
2015-06-17 June 2015 2015-06-17 3 [CJ Cannon Cover] Oni Press, Inc. Oni Press [eye] 32 3.99 USD 64985600054500311
2015-06-17 June 2015 2015-06-17 3 [Incentive Julieta Colás Variant] Oni Press, Inc. Oni Press [eye] 32 [none] 64985600054500321
2015-06-24 June 2015 2015-06-24 2 [Second Printing Variant - Yehudi Mercado] Oni Press, Inc. Oni Press [eye] 32 3.99 USD 64985600054500212
2015-07-22 July 2015 2015-07-22 1 [Third Printing Variant - Maximus Pauson] Oni Press, Inc. Oni Press [eye] 32 3.99 USD 64985600054500113
2015-07-22 July 2015 2015-07-22 4 [CJ Cannon Cover] Oni Press, Inc. Oni Press [eye] 32 3.99 USD 64985600054500411
2015-07-22 July 2015 2015-07-22 4 [Incentive Marc Lapierre Variant] Oni Press, Inc. Oni Press [eye] 32 [none] 64985600054500421
2015-08-19 August 2015 2015-08-19 5 [CJ Cannon Cover] Oni Press, Inc. Oni Press [eye] 32 3.99 USD 64985600054500511
2015-08-19 August 2015 2015-08-19 5 [Incentive Ian McGinty Variant] Oni Press, Inc. Oni Press [eye] 32 [none] 64985600054500521
2015-09-00 September 2015 2015-10-08 6 [2015 NYCC Exclusive Tom Fowler Variant] Oni Press, Inc. Oni Press [eye] 32 [none] 64985600054500631
2015-09-09 September 2015 2015-09-09 2 [Third Printing Variant - Julieta Colás] Oni Press, Inc. Oni Press [eye] 32 3.99 USD 64985600054500213
2015-09-09 September 2015 2015-09-09 3 [Second Printing Variant - Kali Fontecchio] Oni Press, Inc. Oni Press [eye] 32 3.99 USD 64985600054500312
2015-09-30 September 2015 2015-09-30 6 [CJ Cannon Cover] Oni Press, Inc. Oni Press [eye] 32 3.99 USD 64985600054500611
2015-09-30 September 2015 2015-09-30 6 [Incentive Andrew MacLean Variant] Oni Press, Inc. Oni Press [eye] 32 [none] 64985600054500621
2015-10-00 October 2015 2015-10-28 7 [Incentive James Callahan Variant] Oni Press, Inc. Oni Press [eye] 32 [none] 64985600054500721
2015-10-07 October 2015 2015-10-07 4 [Second Printing Variant - Drew Rausch] Oni Press, Inc. Oni Press [eye] 3.99 USD 64985600054500412
2015-10-14 October 2015 2015-10-14 1 [Fourth Printing Variant - Cannon/Hill] Oni Press, Inc. Oni Press [eye] 32 3.99 USD 64985600054500114
2015-10-28 October 2015 2015-10-28 7 Oni Press, Inc. Oni Press [eye] 32 3.99 USD 64985600054500711
2015-11-00 November 2015 2015-11-25 8 [Incentive George Bletsis Variant] Oni Press, Inc. Oni Press [eye] 32 [none] 64985600054500821
2015-11-00 November 2015 2015-11-25 8 [Exceed Exclusives Giahna Pantano Variant] Oni Press, Inc. Oni Press [eye] 32 [none] 64985600054500831
2015-11-18 November 2015 2015-11-18 5 [Second Printing Variant] Oni Press, Inc. Oni Press [eye] 32 3.99 USD 64985600054500512
2015-11-25 November 2015 2015-11-25 8 [CJ Cannon Cover] Oni Press, Inc. Oni Press [eye] 32 3.99 USD 64985600054500811
2015-12-00 December 2015 2015-12-23 9 [Exceed Exclusives Giahna Pantano Variant] Oni Press, Inc. Oni Press [eye] 32 [none] 64985600054500931
2015-12-09 December 2015 2015-12-09 3 [Third Printing Variant - Nicole Rodriguez] Oni Press, Inc. Oni Press [eye] 32 3.99 USD 64985600054500313
2015-12-23 December 2015 2015-12-23 9 [CJ Cannon Cover] Oni Press, Inc. Oni Press [eye] 32 3.99 USD 64985600054500911
2015-12-23 December 2015 2015-12-23 9 [Incentive Maximus Julius Pauson Variant] Oni Press, Inc. Oni Press [eye] 32 [none] 64985600054500921
2016-01-00 January 2016 2016-01-27 10 [Exceed Exclusives Mady G Variant] Oni Press, Inc. Oni Press [eye] 32 [none] 64985600054501031
2016-01-06 January 2016 2016-01-06 2 [Fourth Printing Variant - Yaoyao Ma Van As] Oni Press, Inc. Oni Press [eye] 32 3.99 USD 64985600054500214
2016-01-27 January 2016 2016-01-27 10 [CJ Cannon Cover] Oni Press, Inc. Oni Press [eye] 32 3.99 USD 64985600054501011
2016-01-27 January 2016 2016-01-27 10 [Incentive Marc Ellerby Variant] Oni Press, Inc. Oni Press [eye] 32 [none] 64985600054501021
2016-02-00 February 2016 2016-02-24 11 [Exceed Exclusives Mady G Variant] Oni Press, Inc. Oni Press [eye] 32 [none] 64985600054501131
2016-02-24 February 2016 2016-02-24 6 [Second Printing Variant] Oni Press, Inc. Oni Press [eye] 32 3.99 USD 64985600054500612
2016-02-24 February 2016 2016-02-24 11 [Regular Cover] Oni Press, Inc. Oni Press [eye] 32 3.99 USD 64985600054501111
2016-02-24 February 2016 2016-02-24 11 [Incentive Ben Sears Variant] Oni Press, Inc. Oni Press [eye] 32 [none] 64985600054501121
2016-03-00 March 2016 2016-03-30 12 [Exceed Exclusives Richard Van As Variant] Oni Press, Inc. Oni Press [eye] 32 [none] 64985600054501231
2016-03-25 March 2016 2016-03-25 11 [2016 Wondercon Exclusive Erica Hayes Variant] Oni Press, Inc. Oni Press [eye] 32 [none] 64985600054501141
2016-03-30 March 2016 2016-03-30 1 [Fifth Printing Variant - Ryan Sygh] Oni Press, Inc. Oni Press [eye] 32 3.99 USD 64985600054500115
2016-03-30 March 2016 2016-03-30 12 [Retail Cover] Oni Press, Inc. Oni Press [eye] 32 3.99 USD 64985600054501211
2016-03-30 March 2016 2016-03-30 12 [Incentive Cover] Oni Press, Inc. Oni Press [eye] 32 [none] 64985600054501221
2016-04-00 April 2016 2016-04-27 13 [Exceed Exclusives Mady G Variant] Oni Press, Inc. Oni Press [eye] 32 [none] 64985600054501331
2016-04-27 April 2016 2016-04-27 13 [Retail Cover] Oni Press, Inc. Oni Press [eye] 32 3.99 USD 64985600054501311
2016-05-00 May 2016 2016-05-25 14 [Incentive Savanna Ganucheau Variant] Oni Press, Inc. Oni Press [eye] 32 [none] 64985600054501421
2016-05-00 May 2016 2016-05-25 14 [Exceed Exclusives Mady G Variant] Oni Press, Inc. Oni Press [eye] 32 [none] 64985600054501431
2016-05-00 May 2016 2016-05-25 14 [Fried Pie Exclusive Emily Helen Variant] Oni Press, Inc. Oni Press [eye] 32 [none] 64985600054501441
2016-05-13 May 2016 2015-05-13 2 [CJ Cannon Cover] Oni Press, Inc. Oni Press [eye] 32 3.99 USD 64985600054500211
2016-05-25 May 2016 2016-05-25 14 [Regular CJ Cannon Cover] Oni Press, Inc. Oni Press [eye] 32 3.99 USD 64985600054501411
2016-06-00 June 2016 2016-06-29 15 [Exceed Exclusives Mady G Variant] Oni Press, Inc. Oni Press [eye] 32 [none] 64985600054501531
2016-06-29 June 2016 2016-06-29 15 [Regular CJ Cannon Cover] Oni Press, Inc. Oni Press [eye] 32 3.99 USD 64985600054501511
2016-06-29 June 2016 2016-06-29 15 [Incentive Tony Fleecs Variant] Oni Press, Inc. Oni Press [eye] 32 [none] 64985600054501521
2016-07-00 July 2016 2016-07-27 16 [Exceed Exclusives Mady G Variant] Oni Press, Inc. Oni Press [eye] 32 [none] 64985600054501631
2016-07-22 July 2016 2016-07-22 16 [2016 SDCC Exclusive Mariel Cartwright Variant Cover] Oni Press, Inc. Oni Press [eye] 32 [none] 64985600054501641
2016-07-27 July 2016 2016-07-27 16 [Regular Cover] Oni Press, Inc. Oni Press [eye] 32 3.99 USD 64985600054501611
2016-07-27 July 2016 2016-07-27 16 [Incentive Troy Nixey Variant] Oni Press, Inc. Oni Press [eye] 32 [none] 64985600054501621
2016-08-00 August 2016 2016-04-27 13 [K.C. Green Cover] Oni Press, Inc. Oni Press [eye] 32 [none] 64985600054501321
2016-08-00 August 2016 2016-08-31 17 [Incentive Rian Sygh Variant] Oni Press, Inc. Oni Press [eye] 32 [none] 64985600054501721
2016-08-31 August 2016 2016-08-31 17 [Regular CJ Cannon Cover] Oni Press, Inc. Oni Press [eye] 32 3.99 USD 64985600054501711
2016-09-28 September 2016 2016-09-28 18 [Regular CJ Cannon Cover] Oni Press, Inc. Oni Press [eye] 32 3.99 USD 64985600054501811
2016-09-28 September 2016 2016-09-28 18 [Incentive Louie Chin Variant] Oni Press, Inc. Oni Press [eye] 32 [none] 64985600054501821
2016-10-26 October 2016 2016-10-26 19 [Regular CJ Cannon Cover] Oni Press, Inc. Oni Press [eye] 32 3.99 USD 64985600054501911
2016-10-26 October 2016 2016-10-26 19 [Incentive Tait Howard Variant] Oni Press, Inc. Oni Press [eye] 32 ? [none] 64985600054501921
2016-11-30 November 2016 2016-11-30 20 [Retail Cover] Oni Press, Inc. Oni Press [eye] 32 3.99 USD 64985600054502011
2016-11-30 November 2016 2016-11-30 20 [Variant Incentive Cover] Oni Press, Inc. Oni Press [eye] 32 [none] 64985600054502021
2016-12-28 December 2016 2016-12-28 21 [Retail Cover] Oni Press, Inc. Oni Press [eye] 32 3.99 USD 64985600054502111
2016-12-28 December 2016 2016-12-28 21 [Variant Incentive Cover] Oni Press, Inc. Oni Press [eye] 32 [none] 64985600054502121
2017-01-25 January 2017 2017-01-25 22 [Retail Cover] Oni Press, Inc. Oni Press [eye] 32 3.99 USD 64985600054502211
2017-01-25 January 2017 2017-01-25 22 [Variant Incentive Cover] Oni Press, Inc. Oni Press [eye] 32 [none] 64985600054502221
2017-02-22 February 2017 2017-02-22 23 [Retail Cover] Oni Press, Inc. Oni Press [eye] 32 3.99 USD 64985600054502311
2017-02-22 February 2017 2017-02-22 23 [Variant Incentive Cover] Oni Press, Inc. Oni Press [eye] 32 [none] 64985600054502321
2017-03-00 March 2017 2017-03-29 24 [Fried Pie Con Exclusive Cover] Oni Press, Inc. Oni Press [eye] 32 [none] 64985600054502431
2017-03-29 March 2017 2017-03-29 24 [Retail Cover] Oni Press, Inc. Oni Press [eye] 32 3.99 USD 64985600054502411
2017-03-29 March 2017 2017-03-29 24 [Variant Incentive Cover] Oni Press, Inc. Oni Press [eye] 32 [none] 64985600054502421
2017-04-00 April 2017 2017-04-26 25 [Variant Incentive Cover] Oni Press, Inc. Oni Press [eye] 32 [none] 64985600054502521
2017-04-26 April 2017 2017-04-26 25 [Retail Cover] Oni Press, Inc. Oni Press [eye] 32 3.99 USD 64985600054502511
2017-04-26 April 2017 2017-04-26 ? 25 [Convention Exclusive Blank Cover - Troy Look] Oni Press, Inc. Oni Press [eye] 32 [none] 64985600054502531
2017-05-00 May 2017 2017-05-31 26 [Variant Incentive Cover] Oni Press, Inc. Oni Press [eye] 32 [none] 64985600054502621
2017-05-31 May 2017 2017-05-31 26 [Retail Cover] Oni Press, Inc. Oni Press [eye] 32 3.99 USD 64985600054502611
2017-06-28 June 2017 2017-06-28 27 [Cover A] Oni Press, Inc. Oni Press [eye] 32 3.99 USD 64985600054502711
2017-06-28 June 2017 2017-06-28 27 [Cover B] Oni Press, Inc. Oni Press [eye] 32 3.99 USD 64985600054502721
2017-07-21 July 2017 2017-07-21 28 [2017 SDCC Exclusive - Zander Cannon] Oni Press, Inc. Oni Press [eye] 32 [none] 64985600054502831
2017-07-26 July 2017 2017-07-26 28 [Cover A] Oni Press, Inc. Oni Press [eye] 32 3.99 USD 64985600054502811
2017-07-26 July 2017 2017-07-26 28 [Cover B] Oni Press, Inc. Oni Press [eye] 32 3.99 USD 64985600054502821
2017-08-23 August 2017 2017-08-23 29 [Cover A] Oni Press, Inc. Oni Press [eye] 32 3.99 USD 64985600054502911
2017-08-23 2017-08-23 29 [Moss Cover] ? ? 3.99 USD 64985600054502921
2017-09-27 September 2017 2017-09-27 30 [Cover A - CJ Cannon] Oni Press, Inc. Oni Press [eye] 32 3.99 USD 64985600054503011
2017-09-27 September 2017 2017-09-27 30 [Cover B - Julieta Colás] Oni Press, Inc. Oni Press [eye] 32 3.99 USD 64985600054503021
2017-09-27 September 2017 2017-09-27 30 [Blank Sketch Cover] Oni Press, Inc. Oni Press [eye] 32 [none] 64985600054503031
2017-10-25 October 2017 2017-10-25 31 [Cover A - CJ Cannon] Oni Press, Inc. Oni Press [eye] 32 3.99 USD 64985600054503111
2017-10-25 October 2017 2017-10-25 31 [Cover B - Mike Vasquez] Oni Press, Inc. Oni Press [eye] 32 3.99 USD 64985600054503121
2017-10-25 October 2017 2017-10-25 ? 31 [Diamond UK - Nick DiFabbio Wraparound] Oni Press, Inc. Oni Press [eye] 32 [none] 64985600054503131
2017-11-29 November 2017 2017-11-29 32 [Cover A - CJ Cannon] Oni Press, Inc. Oni Press [eye] 32 3.99 USD 64985600054503211
2017-11-29 November 2017 2017-11-29 32 [Cover B - Terry Blas] Oni Press, Inc. Oni Press [eye] 3.99 USD 64985600054503221
2017-11-29 November 2017 2017-11-29 32 [Emmett Helen] Oni Press, Inc. Oni Press [eye] 32 [none] 64985600054503231
2017-12-27 December 2017 2017-12-27 33 [Cover A - CJ Cannon] Oni Press, Inc. 20 Years of Comics; Oni Press 32 3.99 USD 64985600054503311
2017-12-27 December 2017 2017-12-27 33 [Cover B - Anissa Espinosa] Oni Press, Inc. 20 Years of Comics; Oni Press 3.99 USD 64985600054503321
2018-01-31 January 2018 2018-01-31 34 Oni Press, Inc. 20 Years of Comics; Oni Press 32 3.99 USD 64985600054503411
2018-01-31 January 2018 2018-01-31 34 [Cover B - Chris Schweizer] Oni Press, Inc. 20 Years of Comics; Oni Press 32 3.99 USD 64985600054503421
2018-01-31 January 2018 2018-01-31 34 [Retailer Exclusive Sketch] Oni Press, Inc. 20 Years of Comics; Oni Press 32 [none] 64985600054503431
2018-02-28 February 2018 2018-02-28 35 [Cover A - Marc Ellerby] Oni Press, Inc. 20 Years of Comics; Oni Press 32 3.99 USD 64985600054503511
2018-02-28 February 2018 2018-02-28 35 [Cover B - Jude Vigants] Oni Press, Inc. 20 Years of Comics; Oni Press 32 3.99 USD 64985600054503521
2018-02-28 February 2018 2018-02-28 35 [Retailer Exclusive - Mike Vasquez] Oni Press, Inc. 20 Years of Comics; Oni Press 32 [none] 64985600054503531
2018-02-28 February 2018 2018-02-28 35 [Brain Trust Exclusive - Alex Cormack] Oni Press, Inc. 20 Years of Comics; Oni Press 32 [none] 64985600054503541
2018-02-28 February 2018 2018-02-28 35 [Scorpion Comics Exclusive - Kyle Starks] Oni Press, Inc. 20 Years of Comics; Oni Press 32 [none] 64985600054503551
2018-02-28 February 2018 2018-02-28 35 [Oni Press Sketch Cover - Troy Look] Oni Press, Inc. 20 Years of Comics; Oni Press 32 [none] 64985600054503561
2018-03-00 March 2018 2018-03-28 36 [Cover B - Mady G] Oni Press, Inc. 20 Years of Comics; Oni Press 32 3.99 USD 64985600054503621
2018-03-28 March 2018 2018-03-28 36 [Cover A - Marc Ellerby] Oni Press, Inc. 20 Years of Comics; Oni Press 32 3.99 USD 64985600054503611
2018-03-28 March 2018 2018-03-28 36 [Retailer Exclusive - Mike Vasquez] Oni Press, Inc. 20 Years of Comics; Oni Press 32 [none] 64985600054503631
2018-03-28 March 2018 2018-03-28 36 [Brain Trust Exclusive - Greg Kirkpatrick] Oni Press, Inc. 20 Years of Comics; Oni Press 32 [none] 64985600054503641
2018-04-25 April 2018 2018-04-25 37 [Cover A - Marc Ellerby] Oni Press, Inc. 20 Years of Comics; Oni Press 32 3.99 USD 64985600054503711
2018-04-25 April 2018 2018-04-25 37 [Cover B - Mike Vasquez] Oni Press, Inc. 20 Years of Comics; Oni Press 32 3.99 USD 64985600054503721
2018-04-25 April 2018 2018-04-25 37 [Retailer Exclusive - Mike Vasquez Black and White] Oni Press, Inc. 20 Years of Comics; Oni Press 32 [none] 64985600054503731
2018-04-25 April 2018 2018-04-25 37 [Brain Trust Exclusive - Steven Wilcox] Oni Press, Inc. 20 Years of Comics; Oni Press 32 [none] 64985600054503741
2018-04-25 April 2018 2018-04-25 37 [Amorphous Ink Sketch Exclusive - Angie Knowles] Oni Press, Inc. 20 Years of Comics; Oni Press 32 [none] 64985600054503751
2018-04-25 April 2018 2018-04-25 37 [More Great Art / Merrimack Games and Comics Exclusive - David Angelo Roman] Oni Press, Inc. 20 Years of Comics; Oni Press 32 [none] 64985600054503761
2018-04-25 April 2018 2018-04-25 37 [Oni Press Foil Cover - Mike Vasquez] Oni Press, Inc. 20 Years of Comics; Oni Press 32 [none] 64985600054503771
2018-05-00 May 2018 2018-05-30 38 [Cover B - Julia Scott] Oni Press, Inc. 20 Years of Comics; Oni Press 32 3.99 USD 64985600054503821
2018-05-30 May 2018 2018-05-30 38 [Cover A - Marc Ellerby] Oni Press, Inc. 20 Years of Comics; Oni Press 32 3.99 USD 64985600054503811
2018-05-30 May 2018 2018-05-30 38 [Brain Trust Exclusive - Crystal Thomas] Oni Press, Inc. 20 Years of Comics; Oni Press 32 [none] 64985600054503831
2018-05-30 May 2018 2018-05-30 38 [Retailer Exclusive - Mike Vasquez] Oni Press, Inc. 20 Years of Comics; Oni Press 32 [none] 64985600054503841
2018-05-30 May 2018 2018-05-30 38 [Scorpion Comics Exclusive - CJ Cannon] Oni Press, Inc. 20 Years of Comics; Oni Press 32 3.99 USD 64985600054503851
2018-05-30 May 2018 2018-05-30 38 [Scorpion Comics Exclusive - CJ Cannon Black and White] Oni Press, Inc. 20 Years of Comics; Oni Press 32 [none] 64985600054503861
2018-05-30 May 2018 2018-05-30 38 [Amorphous Ink Exclusive - Mike Vasquez] Oni Press, Inc. 20 Years of Comics; Oni Press 32 [none] 64985600054503871
2018-06-00 June 2018 2018-06-27 39 [Cover B - Howard Shum] Oni Press, Inc. 20 Years of Comics; Oni Press 32 3.99 USD 64985600054503921
2018-06-27 June 2018 2018-06-27 39 [Cover A - Marc Ellerby] Oni Press, Inc. 20 Years of Comics; Oni Press 32 3.99 USD 64985600054503911
2018-06-27 June 2018 2018-06-27 39 [The Nerd Store Exclusive - Steven Wilcox] Oni Press, Inc. 20 Years of Comics; Oni Press 32 [none] 64985600054503931
2018-06-27 June 2018 2018-06-27 39 [Retailer Exclusive - Mike Vasquez] Oni Press, Inc. 20 Years of Comics; Oni Press 32 [none] 64985600054503941
2018-06-27 June 2018 2018-06-27 39 [Excelsior Collectibles Exclusive - Alex Kotkin] Oni Press, Inc. 20 Years of Comics; Oni Press 32 [none] 64985600054503951
2018-06-27 June 2018 2018-06-27 39 [Amorphous Ink Exclusive - Mike Vasquez] Oni Press, Inc. 20 Years of Comics; Oni Press 32 [none] 64985600054503951
2018-06-27 June 2018 2018-06-27 ? 39 [Supercon Exclusive - Angie Knowles] Oni Press, Inc. 20 Years of Comics; Oni Press 32 [none] 64985600054503971
2018-07-25 July 2018 2018-07-25 40 [Cover A - Marc Ellerby] Oni Press, Inc. 20 Years of Comics; Oni Press 32 3.99 USD 64985600054504011
2018-07-25 July 2018 2018-07-25 40 [Cover B - Natalie Riess] Oni Press, Inc. 20 Years of Comics; Oni Press 32 3.99 USD 64985600054504021
2018-07-25 July 2018 2018-07-25 40 [Retailer Exclusive - Mike Vasquez] Oni Press, Inc. 20 Years of Comics; Oni Press 32 [none] 64985600054504031
2018-07-25 July 2018 2018-07-25 40 [Scorpion Comics Exclusive 'Infinite Ricks' Blank Sketch - Kyle Starks] Oni Press, Inc. 20 Years of Comics; Oni Press 32 [none] 64985600054504051
2018-07-25 July 2018 2018-07-25 40 [More Great Art / Merrimack Games and Comics Exclusive - Portal Cover] Oni Press, Inc. 20 Years of Comics; Oni Press 32 [none] 64985600054504061
2018-08-29 August 2018 2018-08-29 41 [Cover A - Marc Ellerby] Oni Press, Inc. 20 Years of Comics; Oni Press 32 3.99 USD 64985600054504111
2018-08-29 August 2018 2018-08-29 41 [Cover B - Kyle Smart] Oni Press, Inc. 20 Years of Comics; Oni Press 32 3.99 USD 64985600054504121
2018-08-29 August 2018 2018-08-29 41 [Retailer Exclusive - Mike Vasquez] Oni Press, Inc. 20 Years of Comics; Oni Press 32 [none] 64985600054504131
2018-08-29 August 2018 2018-08-29 41 [Big Time Collectibles / Ivie League Comics Exclusive - Chris Rau] Oni Press, Inc. 20 Years of Comics; Oni Press 32 [none] 64985600054504141
2018-08-29 August 2018 2018-08-29 ? 41 [2018 Keystone Comic Con Exclusive - Chrissie Zullo Connecting] Oni Press, Inc. 20 Years of Comics; Oni Press 32 [none] 64985600054504151
2018-08-29 August 2018 2018-08-29 41 [Retailer Exclusive Blank Cover] Oni Press, Inc. 20 Years of Comics; Oni Press 32 [none] 64985600054504161
2018-08-29 August 2018 2018-08-29 ? 41 [Rose City Comic Con Exclusive - Kyle Starks] Oni Press, Inc. 20 Years of Comics; Oni Press 32 [none] 64985600054504171
2018-08-29 August 2018 2018-08-29 ? 41 [Rose City Comic Con Exclusive - Blank Sketch - Kyle Starks] Oni Press, Inc. 20 Years of Comics; Oni Press 32 [none] 64985600054504181
2018-09-00 September 2018 2018-09-26 42 [Cover B - Hamish Steele] Oni Press, Inc. 20 Years of Comics; Oni Press 32 3.99 USD 64985600054504221
2018-09-00 September 2018 2018-10-06 42 [2018 NYCC Exclusive - Chrissie Zullo Connecting] Oni Press, Inc. 20 Years of Comics; Oni Press 32 [none] 64985600054504241
2018-09-26 September 2018 2018-09-26 42 [Cover A - Marc Ellerby] Oni Press, Inc. 20 Years of Comics; Oni Press 32 3.99 USD 64985600054504211
2018-09-26 September 2018 2018-09-26 42 [Retailer Exclusive - Mike Vasquez] Oni Press, Inc. 20 Years of Comics; Oni Press 32 [none] 64985600054504231
2018-10-00 October 2018 2018-10-31 43 [Cover B] Oni Press, Inc. 20 Years of Comics; Oni Press 32 3.99 USD 64985600054504321
2018-10-31 October 2018 2018-10-31 43 [Cover A] Oni Press, Inc. 20 Years of Comics; Oni Press 32 3.99 USD 64985600054504311
2018-11-28 November 2018 2018-11-28 44 [Cover A] Oni Press, Inc. 20 Years of Comics; Oni Press 32 3.99 USD 64985600054504411
2018-11-28 November 2018 2018-11-28 44 [Cover B] Oni Press, Inc. 20 Years of Comics; Oni Press 32 3.99 USD 64985600054504421
2018-11-28 November 2018 2018-11-28 44 [Comics Plus Exclusive - Alex Cormack] Oni Press, Inc. 20 Years of Comics; Oni Press 32 [none] 64985600054504431
2018-11-28 November 2018 2018-11-28 ? 44 [Supercon Exclusive - Greg Kirkpatrick] Oni Press, Inc. 20 Years of Comics; Oni Press 32 3.99 USD 64985600054504441
2018-12-00 December 2018 2019-01-02 45 [Cover A] Oni Press, Inc. 20 Years of Comics; Oni Press 32 3.99 USD 64985600054504511
2018-12-00 December 2018 2019-01-02 45 [Cover B] Oni Press, Inc. 20 Years of Comics; Oni Press 32 3.99 USD 64985600054504521
2019-01-00 January 2019 2019-01-30 46 [Cover B] Oni Press, Inc. Oni Press [eye] 32 3.99 USD 64985600054504621
2019-01-30 January 2019 2019-01-30 46 [Cover A] Oni Press, Inc. Oni Press [eye] 32 3.99 USD 64985600054504611
2019-01-30 January 2019 2019-01-30 46 [Retailer Exclusive - Steven Wilcox] Oni Press, Inc. Oni Press [eye] 32 [none] 64985600054504631
2019-02-00 February 2019 2019-02-27 47 [Cover B] Oni Press, Inc. Oni Press [eye] 32 3.99 USD 64985600054504721
2019-02-27 February 2019 2019-02-27 47 [Cover A] Oni Press, Inc. Oni Press [eye] 32 3.99 USD 64985600054504711
2019-03-27 March 2019 2019-03-27 48 [Cover A] Oni Press, Inc. Oni Press [eye] 32 3.99 USD 64985600054504811
2019-03-27 March 2019 2019-03-27 48 [KRS Comics Exclusive 1 - Alex Cormack] Oni Press, Inc. Oni Press [eye] 32 3.99 USD 64985600054504831
2019-03-27 March 2019 2019-03-27 48 [KRS Comics Exclusive 2 - Alex Cormack] Oni Press, Inc. Oni Press [eye] 32 [none] 64985600054504841
2019-04-24 April 2019 2019-04-24 49 [Cover A] Oni Press, Inc. Oni Press [eye] 32 3.99 USD 64985600054504911
2019-04-24 April 2019 2019-04-24 49 [Cover B] Oni Press, Inc. Oni Press [eye] 32 3.99 USD 64985600054504921
2019-04-24 April 2019 2019-04-24 ? 49 [Awesome Con Exclusive - Kyle Starks] Oni Press, Inc. Oni Press [eye] 32 [none] 64985600054504931
2019-05-00 May 2019 2019-03-27 48 [Cover B] Oni Press, Inc. Oni Press [eye] 32 3.99 USD 64985600054504821
2019-05-29 April 2015 2019-05-29 1 [50 Issues Special Connecting Cover - Marc Ellerby] Oni Press, Inc. Oni Press [eye] 32 3.99 USD 64985600054500116
2019-05-29 May 2019 2019-05-29 2 [50 Issues Special Connecting Cover - Marc Ellerby] Oni Press, Inc. Oni Press [eye] 32 3.99 USD 64985600054500215
2019-05-29 June 2015 2019-05-29 3 [50 Issues Special Connecting Cover - Marc Ellerby] Oni Press, Inc. Oni Press [eye] 32 3.99 USD 64985600054500314
2019-05-29 July 2015 2019-05-29 4 [50 Issues Special Connecting Cover - Marc Ellerby] Oni Press, Inc. Oni Press [eye] 32 3.99 USD 64985600054500413
2019-05-29 August 2015 2019-05-29 5 [50 Issues Special Connecting Cover - Marc Ellerby] Oni Press, Inc. Oni Press [eye] 32 3.99 USD 64985600054500513
2019-05-29 May 2019 2019-05-29 50 [Cover A] Oni Press, Inc. Oni Press [eye] 44 6.99 USD 64985600054505011
2019-05-29 May 2019 2019-05-29 50 [Cover B] Oni Press, Inc. Oni Press [eye] 44 6.99 USD 64985600054505021
2019-05-29 May 2019 2019-05-29 50 [Cover C] Oni Press, Inc. Oni Press [eye] 44 6.99 USD 64985600054505031
2019-05-29 May 2019 2019-05-29 50 [Oni Press Shopify Exclusive - Marc Ellerby] Oni Press, Inc. Oni Press [eye] 44 [none] 64985600054505041
2019-05-29 May 2019 2019-05-29 50 [Big Easy Comic Con Exclusive - Kyle Starks] Oni Press, Inc. Oni Press [eye] 44 [none] 64985600054505051
2019-05-29 May 2019 2019-05-29 50 [Justin Roiland 'Dissected' - Julieta Colás] Oni Press, Inc. Oni Press [eye] 44 [none] 64985600054505061
2019-05-29 May 2019 2019-05-29 50 [Dan Harmon 'Dissected' - Julieta Colás] Oni Press, Inc. Oni Press [eye] 44 [none] 64985600054505071
2019-06-26 June 2019 2019-06-26 51 [Cover A] Oni Press, Inc. Oni Press [eye] 32 3.99 USD 64985600054505111
2019-06-26 June 2019 2019-06-26 51 [Cover B] Oni Press, Inc. Oni Press [eye] 32 3.99 USD 64985600054505121
2019-06-26 June 2019 2019-06-26 51 [Hero Trader Comics Exclusive - Bob Layton] Oni Press, Inc. Oni Press [eye] 32 [none] 64985600054505131
2019-07-31 July 2019 2019-07-31 52 [Cover A] Oni Press, Inc. Oni Press [eye] 32 3.99 USD 64985600054505211
2019-07-31 July 2019 2019-07-31 52 [Cover B] Oni Press, Inc. Oni Press [eye] 32 3.99 USD 64985600054505221
2019-07-31 July 2019 2019-07-31 ? 52 [San Diego Comic Con International Exclusive - Kyle Starks] Oni Press, Inc. Oni Press [eye] 32 [none] 64985600054505231
2019-07-31 July 2019 2019-07-31 ? 52 [GalaxyCon Exclusive - Greg Kirkpatrick] Oni Press, Inc. Oni Press [eye] 32 [none] 64985600054505241
2019-08-28 August 2019 2019-08-28 53 [Cover A] Oni Press, Inc. Oni Press [eye] 32 3.99 USD 64985600054505311
2019-08-28 August 2019 2019-08-28 53 [Cover B] Oni Press, Inc. Oni Press [eye] 32 3.99 USD 64985600054505321
2019-09-25 September 2019 2019-09-25 54 [Cover A] Oni Press, Inc. Oni Press [eye] 32 3.99 USD 64985600054505411
2019-09-25 September 2019 2019-09-25 54 [Cover B] Oni Press, Inc. Oni Press [eye] 32 3.99 USD 64985600054505421
2019-10-30 October 2019 2019-10-30 55 [Cover A] Oni Press, Inc. Oni Press [eye] 32 3.99 USD 64985600054505511
2019-10-30 October 2019 2019-10-30 55 [Cover B] Oni Press, Inc. Oni Press [eye] 32 3.99 USD 64985600054505521
2019-11-27 November 2019 2019-11-27 56 [Cover A] Oni Press, Inc. Oni Press [eye] 32 3.99 USD 64985600054505611
2019-11-27 November 2019 2019-11-27 56 [Cover B] Oni Press, Inc. Oni Press [eye] 32 3.99 USD 64985600054505621
2019-12-18 December 2019 2019-12-18 57 [Cover A] Oni Press, Inc. Oni Press [eye] 32 3.99 USD 64985600054505711
2019-12-18 December 2019 2019-12-18 57 [Cover B] Oni Press, Inc. Oni Press [eye] 32 3.99 USD 64985600054505721
2020-01-29 January 2020 2020-01-29 58 [Cover A] Oni Press, Inc. Oni Press [eye] 32 3.99 USD 64985600054505811
2020-01-29 January 2020 2020-01-29 58 [Cover B] Oni Press, Inc. Oni Press [eye] 32 3.99 USD 64985600054505821
2020-02-00 February 2020 2020-02-26 59 [Cover B] Oni-Lion Forge Publishing Group, LLC Oni Press [eye] 32 3.99 USD 64985600054505921
2020-02-26 February 2020 2020-02-26 59 [Cover A] Oni-Lion Forge Publishing Group, LLC Oni Press [eye] 32 3.99 USD 64985600054505911
2020-03-00 March 2020 2020-03-25 60 [Cover B] Oni-Lion Forge Publishing Group, LLC Oni Press [eye] 32 3.99 USD 64985600054506021
2020-03-25 March 2020 2020-03-25 60 [Cover A] Oni-Lion Forge Publishing Group, LLC Oni Press [eye] 32 3.99 USD 64985600054506011